User: anonymous   Login
Location: Unspecified
(0.0000°N, 0.0000°E)
Time: 01:24:45
(UTC+00:00)
Language:

NAVSTAR 64 (USA 206) - Orbit

View from above orbital plane
View from above orbital plane
View from above satellite
View from above satellite

Ground track
Ground track

The orbit data is extracted from the following two-line orbital elements,

1 35752U 09043A   17148.71722834 +.00000044 +00000-0 +00000-0 0  9991
2 35752 054.2519 160.3063 0048611 028.3235 109.4809 02.00553936057020
Epoch (UTC): 28 May 2017 17:12:48
Eccentricity: 0.0048611
inclination: 54.2519°
perigee height: 20054 km
apogee height: 20312 km
right ascension of ascending node: 160.3063°
argument of perigee: 28.3235°
revolutions per day: 2.00553936
mean anomaly at epoch: 109.4809°
orbit number at epoch: 5702

The dashed part of the orbit path shows where the satellite is in the earth's shadow,  

DLR